IBS475 GCLP-LEZL

Flight info

Callsign IBS475
Flight time 1h 50m
Altitude 36000
Route KORAL UG5 SONSO DCT NIRAL UN871 ADUBI DCT VJF
Aircraft A320/M-SDE3FGHIRWY/LB1

Departure

Time 2026-04-28 13:57
Airport Gran Canaria Airport (GCLP)

Arrival

Time 2026-04-28 15:47
Airport Seville Airport (LEZL)
Time Latitude Longitude Altitude Speed Heading
2026-04-28 13:44 27.93983 -15.38769 87 ft 0 kts 291°
2026-04-28 13:47 27.93979 -15.38756 86 ft 2 kts 291°
2026-04-28 13:47 27.93973 -15.38738 85 ft 3 kts 291°
2026-04-28 13:47 27.93966 -15.38719 87 ft 3 kts 291°
2026-04-28 13:48 27.93960 -15.38701 86 ft 3 kts 280°
2026-04-28 13:48 27.93961 -15.38681 83 ft 2 kts 216°
2026-04-28 13:48 27.93971 -15.38674 86 ft 0 kts 202°
2026-04-28 13:49 27.93970 -15.38675 86 ft 0 kts 202°
2026-04-28 13:49 27.93950 -15.38684 86 ft 7 kts 202°
2026-04-28 13:50 27.93911 -15.38701 84 ft 5 kts 198°
2026-04-28 13:50 27.93880 -15.38712 87 ft 7 kts 198°
2026-04-28 13:50 27.93800 -15.38747 86 ft 15 kts 201°
2026-04-28 13:50 27.93709 -15.38787 87 ft 13 kts 201°
2026-04-28 13:51 27.93629 -15.38822 87 ft 12 kts 201°
2026-04-28 13:51 27.93558 -15.38853 84 ft 10 kts 200°
2026-04-28 13:51 27.93487 -15.38875 83 ft 13 kts 183°
2026-04-28 13:51 27.93419 -15.38781 71 ft 17 kts 118°
2026-04-28 13:52 27.93308 -15.38798 68 ft 17 kts 203°
2026-04-28 13:52 27.93201 -15.38845 68 ft 16 kts 200°
2026-04-28 13:52 27.93104 -15.38891 73 ft 13 kts 206°
2026-04-28 13:52 27.93002 -15.38941 71 ft 19 kts 201°
2026-04-28 13:53 27.92889 -15.38990 81 ft 16 kts 201°
2026-04-28 13:53 27.92796 -15.39030 87 ft 15 kts 202°
2026-04-28 13:53 27.92678 -15.39082 89 ft 20 kts 200°
2026-04-28 13:53 27.92563 -15.39131 92 ft 16 kts 201°
2026-04-28 13:54 27.92472 -15.39172 95 ft 13 kts 202°
2026-04-28 13:54 27.92394 -15.39207 98 ft 14 kts 202°
2026-04-28 13:54 27.92290 -15.39255 99 ft 16 kts 202°
2026-04-28 13:54 27.92186 -15.39301 99 ft 16 kts 200°
2026-04-28 13:55 27.92070 -15.39311 94 ft 18 kts 175°
2026-04-28 13:55 27.91956 -15.39294 89 ft 15 kts 161°
2026-04-28 13:55 27.91894 -15.39197 87 ft 18 kts 111°
2026-04-28 13:55 27.91849 -15.39071 81 ft 18 kts 108°
2026-04-28 13:56 27.91939 -15.38983 74 ft 24 kts 21°
2026-04-28 13:56 27.92315 -15.38813 56 ft 92 kts 21°
2026-04-28 13:56 27.93093 -15.38469 48 ft 145 kts 21°
2026-04-28 13:56 27.94056 -15.38030 610 ft 147 kts 21°
2026-04-28 13:57 27.94999 -15.37577 1291 ft 148 kts 21°
2026-04-28 13:57 27.96002 -15.37099 1700 ft 167 kts 20°
2026-04-28 13:57 27.97161 -15.36603 1990 ft 189 kts 19°
2026-04-28 13:57 27.98466 -15.36064 2319 ft 209 kts 18°
2026-04-28 13:58 27.99917 -15.35468 2679 ft 234 kts 19°
2026-04-28 13:58 28.01503 -15.34813 3355 ft 248 kts 19°
2026-04-28 13:58 28.03153 -15.34127 4145 ft 256 kts 18°
2026-04-28 13:58 28.04844 -15.33425 5021 ft 262 kts 17°
2026-04-28 13:59 28.06574 -15.32708 5871 ft 267 kts 18°
2026-04-28 13:59 28.08330 -15.31981 6714 ft 271 kts 18°
2026-04-28 13:59 28.10116 -15.31241 7549 ft 275 kts 17°
2026-04-28 13:59 28.11930 -15.30490 8357 ft 279 kts 18°
2026-04-28 14:00 28.13688 -15.29565 9110 ft 288 kts 31°
2026-04-28 14:00 28.15187 -15.27968 9904 ft 298 kts 51°
2026-04-28 14:00 28.16356 -15.25975 10427 ft 314 kts 54°
2026-04-28 14:00 28.17600 -15.23834 10662 ft 337 kts 54°
2026-04-28 14:01 28.18927 -15.21557 11043 ft 353 kts 54°
2026-04-28 14:01 28.20295 -15.19217 11687 ft 358 kts 54°
2026-04-28 14:01 28.21682 -15.16846 12371 ft 363 kts 54°
2026-04-28 14:01 28.23065 -15.14478 13072 ft 367 kts 55°
2026-04-28 14:02 28.24481 -15.12048 13717 ft 372 kts 55°
2026-04-28 14:02 28.25914 -15.09589 14377 ft 375 kts 55°
2026-04-28 14:02 28.27360 -15.07110 14987 ft 379 kts 54°
2026-04-28 14:02 28.28821 -15.04610 15617 ft 381 kts 54°
2026-04-28 14:03 28.30293 -15.02087 15959 ft 384 kts 54°
2026-04-28 14:03 28.31765 -14.99560 16053 ft 384 kts 54°
2026-04-28 14:03 28.33236 -14.97031 16068 ft 384 kts 54°
2026-04-28 14:03 28.34705 -14.94502 16068 ft 383 kts 55°
2026-04-28 14:04 28.36172 -14.91976 16064 ft 383 kts 54°
2026-04-28 14:04 28.37637 -14.89447 16065 ft 383 kts 55°
2026-04-28 14:04 28.39097 -14.86924 16065 ft 382 kts 54°
2026-04-28 14:04 28.40565 -14.84382 16463 ft 386 kts 55°
2026-04-28 14:05 28.42042 -14.81826 17122 ft 388 kts 54°
2026-04-28 14:05 28.43530 -14.79257 17740 ft 391 kts 54°
2026-04-28 14:05 28.45030 -14.76665 18375 ft 393 kts 54°
2026-04-28 14:05 28.46541 -14.74059 18874 ft 396 kts 54°
2026-04-28 14:06 28.48063 -14.71432 19380 ft 400 kts 54°
2026-04-28 14:06 28.49599 -14.68778 19859 ft 403 kts 54°
2026-04-28 14:06 28.51145 -14.66101 20343 ft 407 kts 54°
2026-04-28 14:06 28.52682 -14.63436 20811 ft 410 kts 54°
2026-04-28 14:07 28.54252 -14.60712 21271 ft 413 kts 54°
2026-04-28 14:07 28.55838 -14.57960 21730 ft 417 kts 54°
2026-04-28 14:07 28.57436 -14.55183 22165 ft 421 kts 54°
2026-04-28 14:07 28.59046 -14.52379 22575 ft 425 kts 53°
2026-04-28 14:08 28.60670 -14.49549 22994 ft 429 kts 53°
2026-04-28 14:08 28.62307 -14.46692 23426 ft 433 kts 53°
2026-04-28 14:08 28.63958 -14.43812 23811 ft 436 kts 53°
2026-04-28 14:08 28.65627 -14.40907 24173 ft 439 kts 53°
2026-04-28 14:09 28.67304 -14.37991 24534 ft 441 kts 53°
2026-04-28 14:09 28.68990 -14.35054 24898 ft 444 kts 53°
2026-04-28 14:09 28.70679 -14.32104 25250 ft 446 kts 53°
2026-04-28 14:09 28.72378 -14.29128 25599 ft 449 kts 53°
2026-04-28 14:10 28.74084 -14.26139 25953 ft 451 kts 53°
2026-04-28 14:10 28.75803 -14.23134 26276 ft 454 kts 53°
2026-04-28 14:10 28.77531 -14.20115 26622 ft 456 kts 53°
2026-04-28 14:10 28.79271 -14.17069 26945 ft 460 kts 53°
2026-04-28 14:11 28.80992 -14.14053 27295 ft 461 kts 53°
2026-04-28 14:11 28.82743 -14.10978 27643 ft 463 kts 53°
2026-04-28 14:11 28.84505 -14.07882 27978 ft 466 kts 53°
2026-04-28 14:11 28.86270 -14.04776 28307 ft 468 kts 53°
2026-04-28 14:12 28.88044 -14.01648 28638 ft 470 kts 53°
2026-04-28 14:12 28.89826 -13.98510 28929 ft 472 kts 53°
2026-04-28 14:12 28.91616 -13.95356 29224 ft 474 kts 53°
2026-04-28 14:12 28.93413 -13.92185 29512 ft 477 kts 53°
2026-04-28 14:13 28.95217 -13.88996 29804 ft 479 kts 53°
2026-04-28 14:13 28.97027 -13.85800 30077 ft 481 kts 53°
2026-04-28 14:13 28.98848 -13.82587 30307 ft 483 kts 53°
2026-04-28 14:13 29.00678 -13.79354 30538 ft 486 kts 53°
2026-04-28 14:14 29.02513 -13.76106 30802 ft 487 kts 53°
2026-04-28 14:14 29.04344 -13.72862 31148 ft 486 kts 53°
2026-04-28 14:14 29.06172 -13.69618 31486 ft 485 kts 53°
2026-04-28 14:14 29.07996 -13.66377 31816 ft 485 kts 53°
2026-04-28 14:15 29.09818 -13.63139 32147 ft 484 kts 53°
2026-04-28 14:15 29.11641 -13.59900 32467 ft 484 kts 53°
2026-04-28 14:15 29.13462 -13.56666 32810 ft 483 kts 53°
2026-04-28 14:15 29.15278 -13.53436 33177 ft 482 kts 53°
2026-04-28 14:16 29.17092 -13.50215 33536 ft 481 kts 53°
2026-04-28 14:16 29.18947 -13.47041 33859 ft 480 kts 51°
2026-04-28 14:16 29.20857 -13.43901 34134 ft 480 kts 51°
2026-04-28 14:16 29.22796 -13.40794 34396 ft 479 kts 50°
2026-04-28 14:17 29.24744 -13.37696 34670 ft 479 kts 50°
2026-04-28 14:17 29.26684 -13.34595 34936 ft 479 kts 50°
2026-04-28 14:17 29.28583 -13.31530 35204 ft 478 kts 51°
2026-04-28 14:17 29.30494 -13.28410 35461 ft 478 kts 51°
2026-04-28 14:18 29.32396 -13.25281 35714 ft 477 kts 51°
2026-04-28 14:18 29.34288 -13.22156 35946 ft 477 kts 51°
2026-04-28 14:18 29.38078 -13.15901 36041 ft 477 kts 51°
2026-04-28 14:19 29.41872 -13.09663 36039 ft 478 kts 51°
2026-04-28 14:19 29.45682 -13.03398 36035 ft 479 kts 51°
2026-04-28 14:20 29.49483 -12.97126 36031 ft 477 kts 51°
2026-04-28 14:20 29.53264 -12.90862 36033 ft 477 kts 51°
2026-04-28 14:21 29.57037 -12.84601 36036 ft 477 kts 51°
2026-04-28 14:21 29.60816 -12.78339 36036 ft 477 kts 51°
2026-04-28 14:22 29.64568 -12.72117 36035 ft 477 kts 51°
2026-04-28 14:22 29.68350 -12.65840 36028 ft 478 kts 51°
2026-04-28 14:23 29.72136 -12.59533 36025 ft 478 kts 51°
2026-04-28 14:23 29.75907 -12.53211 36027 ft 479 kts 52°
2026-04-28 14:24 29.79647 -12.46872 36021 ft 479 kts 52°
2026-04-28 14:24 29.83388 -12.40518 36060 ft 478 kts 52°
2026-04-28 14:25 29.87125 -12.34180 36048 ft 478 kts 52°
2026-04-28 14:25 29.90857 -12.27857 36039 ft 477 kts 52°
2026-04-28 14:26 29.94585 -12.21528 36033 ft 477 kts 52°
2026-04-28 14:26 29.98281 -12.15233 36027 ft 477 kts 52°
2026-04-28 14:27 30.02222 -12.09122 36025 ft 471 kts 42°
2026-04-28 14:27 30.06897 -12.03859 36029 ft 470 kts 39°
2026-04-28 14:28 30.11604 -11.98604 36011 ft 471 kts 39°
2026-04-28 14:28 30.16313 -11.93336 36003 ft 472 kts 40°
2026-04-28 14:29 30.20232 -11.88935 36001 ft 472 kts 40°
2026-04-28 14:29 30.24940 -11.83640 36003 ft 472 kts 40°
2026-04-28 14:30 30.29656 -11.78333 36007 ft 473 kts 40°
2026-04-28 14:30 30.34370 -11.73016 36010 ft 473 kts 40°
2026-04-28 14:31 30.39084 -11.67692 36013 ft 473 kts 40°
2026-04-28 14:31 30.43795 -11.62374 36029 ft 473 kts 40°
2026-04-28 14:32 30.48472 -11.57086 36029 ft 472 kts 40°
2026-04-28 14:32 30.53170 -11.51773 36026 ft 471 kts 40°
2026-04-28 14:33 30.57852 -11.46455 36021 ft 471 kts 40°
2026-04-28 14:33 30.62525 -11.41142 36022 ft 470 kts 40°
2026-04-28 14:34 30.69541 -11.33165 36018 ft 470 kts 40°
2026-04-28 14:35 30.74208 -11.27848 36011 ft 471 kts 40°
2026-04-28 14:35 30.78886 -11.22507 36027 ft 471 kts 40°
2026-04-28 14:36 30.83541 -11.17172 36026 ft 470 kts 40°
2026-04-28 14:36 30.88202 -11.11840 36019 ft 470 kts 40°
2026-04-28 14:37 30.92860 -11.06506 36012 ft 469 kts 40°
2026-04-28 14:37 30.97482 -11.01198 36012 ft 469 kts 40°
2026-04-28 14:38 31.02122 -10.95850 36003 ft 469 kts 40°
2026-04-28 14:38 31.06774 -10.90504 36034 ft 470 kts 40°
2026-04-28 14:39 31.11425 -10.85151 36020 ft 470 kts 40°
2026-04-28 14:39 31.16071 -10.79783 36013 ft 469 kts 40°
2026-04-28 14:40 31.20702 -10.74411 36013 ft 469 kts 40°
2026-04-28 14:40 31.25334 -10.69040 36005 ft 469 kts 40°
2026-04-28 14:41 31.29939 -10.63709 36000 ft 469 kts 40°
2026-04-28 14:41 31.34566 -10.58331 36000 ft 469 kts 40°
2026-04-28 14:42 31.39194 -10.52944 36024 ft 469 kts 41°
2026-04-28 14:42 31.43823 -10.47552 36018 ft 469 kts 41°
2026-04-28 14:43 31.48442 -10.42152 36004 ft 469 kts 41°
2026-04-28 14:43 31.53062 -10.36747 36005 ft 469 kts 41°
2026-04-28 14:44 31.57680 -10.31348 35998 ft 469 kts 41°
2026-04-28 14:44 31.62263 -10.25978 35995 ft 469 kts 41°
2026-04-28 14:45 31.66881 -10.20567 36015 ft 469 kts 41°
2026-04-28 14:45 31.71494 -10.15146 36006 ft 469 kts 41°
2026-04-28 14:46 31.76102 -10.09709 35997 ft 470 kts 41°
2026-04-28 14:46 31.80715 -10.04271 35991 ft 470 kts 41°
2026-04-28 14:47 31.85329 -9.98826 35991 ft 470 kts 41°
2026-04-28 14:47 31.89937 -9.93373 35994 ft 470 kts 41°
2026-04-28 14:48 31.94546 -9.87918 35992 ft 470 kts 41°
2026-04-28 14:48 31.99153 -9.82454 36016 ft 470 kts 42°
2026-04-28 14:49 32.03751 -9.76981 35999 ft 470 kts 42°
2026-04-28 14:49 32.08321 -9.71532 35989 ft 470 kts 42°
2026-04-28 14:50 32.12927 -9.66044 35989 ft 471 kts 42°
2026-04-28 14:50 32.17541 -9.60556 35986 ft 471 kts 42°
2026-04-28 14:51 32.22154 -9.55050 35986 ft 471 kts 42°
2026-04-28 14:51 32.26748 -9.49539 36003 ft 471 kts 43°
2026-04-28 14:52 32.31346 -9.44010 35995 ft 471 kts 43°
2026-04-28 14:52 32.35938 -9.38500 35992 ft 471 kts 43°
2026-04-28 14:53 32.40535 -9.32982 35985 ft 471 kts 43°
2026-04-28 14:53 32.45107 -9.27485 35984 ft 471 kts 43°
2026-04-28 14:54 32.49696 -9.21947 35983 ft 471 kts 43°
2026-04-28 14:54 32.54278 -9.16398 35980 ft 471 kts 43°
2026-04-28 14:55 32.58867 -9.10843 36000 ft 471 kts 43°
2026-04-28 14:55 32.63449 -9.05285 35980 ft 471 kts 44°
2026-04-28 14:56 32.68027 -8.99728 35973 ft 471 kts 44°
2026-04-28 14:56 32.72608 -8.94162 35972 ft 471 kts 44°
2026-04-28 14:57 32.77190 -8.88584 35969 ft 471 kts 44°
2026-04-28 14:57 32.81768 -8.82993 35969 ft 472 kts 44°
2026-04-28 14:58 32.86317 -8.77434 35988 ft 472 kts 44°
2026-04-28 14:58 32.90892 -8.71842 35983 ft 471 kts 44°
2026-04-28 14:59 32.95464 -8.66250 35971 ft 471 kts 44°
2026-04-28 14:59 33.00027 -8.60652 35965 ft 471 kts 44°
2026-04-28 15:00 33.04584 -8.55046 35965 ft 471 kts 45°
2026-04-28 15:00 33.09137 -8.49426 35965 ft 471 kts 45°
2026-04-28 15:01 33.13663 -8.43843 35963 ft 471 kts 44°
2026-04-28 15:01 33.18230 -8.38235 35963 ft 470 kts 42°
2026-04-28 15:02 33.23470 -8.33651 35947 ft 467 kts 30°
2026-04-28 15:02 33.28989 -8.29527 35942 ft 468 kts 30°
2026-04-28 15:03 33.34508 -8.25375 35943 ft 468 kts 30°
2026-04-28 15:03 33.39987 -8.21234 35946 ft 469 kts 30°
2026-04-28 15:04 33.45499 -8.17062 35938 ft 468 kts 31°
2026-04-28 15:04 33.51008 -8.12886 35939 ft 468 kts 31°
2026-04-28 15:05 33.56505 -8.08719 35938 ft 467 kts 31°
2026-04-28 15:05 33.61997 -8.04543 35937 ft 467 kts 31°
2026-04-28 15:06 33.67490 -8.00375 35935 ft 467 kts 31°
2026-04-28 15:06 33.72976 -7.96199 35944 ft 467 kts 31°
2026-04-28 15:07 33.78462 -7.92005 35938 ft 466 kts 31°
2026-04-28 15:07 33.83935 -7.87826 35932 ft 466 kts 31°
2026-04-28 15:08 33.89414 -7.83645 35930 ft 466 kts 31°
2026-04-28 15:08 33.94847 -7.79478 35929 ft 466 kts 31°
2026-04-28 15:09 34.00311 -7.75276 35940 ft 466 kts 32°
2026-04-28 15:09 34.05774 -7.71074 35936 ft 465 kts 31°
2026-04-28 15:10 34.11228 -7.66880 35936 ft 465 kts 32°
2026-04-28 15:10 34.16682 -7.62674 35933 ft 465 kts 32°
2026-04-28 15:11 34.22121 -7.58470 35911 ft 465 kts 32°
2026-04-28 15:11 34.27573 -7.54253 35919 ft 465 kts 32°
2026-04-28 15:12 34.33022 -7.50035 35919 ft 465 kts 32°
2026-04-28 15:12 34.38432 -7.45835 35919 ft 465 kts 32°
2026-04-28 15:13 34.43877 -7.41594 35915 ft 465 kts 32°
2026-04-28 15:13 34.49334 -7.37360 35915 ft 465 kts 32°
2026-04-28 15:14 34.54783 -7.33122 35919 ft 465 kts 32°
2026-04-28 15:14 34.60225 -7.28870 35918 ft 465 kts 33°
2026-04-28 15:15 34.65659 -7.24612 35914 ft 465 kts 33°
2026-04-28 15:15 34.71106 -7.20344 35900 ft 465 kts 33°
2026-04-28 15:16 34.76541 -7.16082 35909 ft 464 kts 33°
2026-04-28 15:16 34.81967 -7.11820 35919 ft 464 kts 33°
2026-04-28 15:17 34.87361 -7.07577 35914 ft 464 kts 33°
2026-04-28 15:17 34.92786 -7.03302 35913 ft 464 kts 33°
2026-04-28 15:18 34.98202 -6.99022 35907 ft 464 kts 33°
2026-04-28 15:18 35.03618 -6.94741 35906 ft 464 kts 33°
2026-04-28 15:19 35.09030 -6.90455 35907 ft 464 kts 33°
2026-04-28 15:19 35.13535 -6.86882 35904 ft 464 kts 34°
2026-04-28 15:20 35.19828 -6.81881 35887 ft 464 kts 34°
2026-04-28 15:20 35.25239 -6.77568 35888 ft 464 kts 34°
2026-04-28 15:21 35.29783 -6.73946 35889 ft 465 kts 34°
2026-04-28 15:21 35.35170 -6.69653 35894 ft 465 kts 34°
2026-04-28 15:22 35.40635 -6.65405 35892 ft 465 kts 33°
2026-04-28 15:22 35.46130 -6.61216 35892 ft 465 kts 33°
2026-04-28 15:23 35.51624 -6.57006 35893 ft 465 kts 33°
2026-04-28 15:23 35.57106 -6.52771 35896 ft 465 kts 33°
2026-04-28 15:24 35.62584 -6.48517 35899 ft 466 kts 33°
2026-04-28 15:24 35.68070 -6.44260 35889 ft 466 kts 33°
2026-04-28 15:25 35.73563 -6.40001 35890 ft 466 kts 33°
2026-04-28 15:25 35.76309 -6.37869 35688 ft 467 kts 33°
2026-04-28 15:25 35.79055 -6.35734 35440 ft 466 kts 33°
2026-04-28 15:25 35.81796 -6.33600 35193 ft 466 kts 33°
2026-04-28 15:26 35.84530 -6.31453 34951 ft 466 kts 34°
2026-04-28 15:26 35.87230 -6.29234 34703 ft 466 kts 35°
2026-04-28 15:26 35.89859 -6.26988 34351 ft 466 kts 36°
2026-04-28 15:26 35.92523 -6.24661 33359 ft 472 kts 36°
2026-04-28 15:27 35.95206 -6.22299 32449 ft 475 kts 36°
2026-04-28 15:27 35.97899 -6.19940 31734 ft 473 kts 36°
2026-04-28 15:27 36.00581 -6.17613 31133 ft 468 kts 35°
2026-04-28 15:27 36.03245 -6.15325 30510 ft 465 kts 35°
2026-04-28 15:28 36.05898 -6.13059 29885 ft 461 kts 34°
2026-04-28 15:28 36.08529 -6.10817 29234 ft 457 kts 34°
2026-04-28 15:28 36.11133 -6.08591 28639 ft 452 kts 35°
2026-04-28 15:28 36.13701 -6.06388 28073 ft 447 kts 34°
2026-04-28 15:29 36.16243 -6.04198 27475 ft 443 kts 35°
2026-04-28 15:29 36.18760 -6.02023 26903 ft 439 kts 35°
2026-04-28 15:29 36.21254 -5.99870 26330 ft 436 kts 35°
2026-04-28 15:29 36.23826 -5.97929 25779 ft 432 kts 26°
2026-04-28 15:30 36.26596 -5.96536 25233 ft 428 kts 17°
2026-04-28 15:30 36.29437 -5.95473 24705 ft 424 kts 16°
2026-04-28 15:30 36.32256 -5.94421 24183 ft 421 kts 16°
2026-04-28 15:30 36.35048 -5.93375 23692 ft 417 kts 16°
2026-04-28 15:31 36.37812 -5.92335 23145 ft 414 kts 17°
2026-04-28 15:31 36.40553 -5.91298 22677 ft 409 kts 17°
2026-04-28 15:31 36.43255 -5.90272 22207 ft 404 kts 17°
2026-04-28 15:31 36.45924 -5.89255 21744 ft 400 kts 17°
2026-04-28 15:32 36.48570 -5.88248 21282 ft 396 kts 17°
2026-04-28 15:32 36.51196 -5.87251 20805 ft 393 kts 17°
2026-04-28 15:32 36.53798 -5.86263 20336 ft 390 kts 16°
2026-04-28 15:32 36.56386 -5.85283 19845 ft 388 kts 16°
2026-04-28 15:33 36.58963 -5.84307 19368 ft 386 kts 16°
2026-04-28 15:33 36.61529 -5.83334 18866 ft 385 kts 16°
2026-04-28 15:33 36.64087 -5.82364 18384 ft 384 kts 16°
2026-04-28 15:33 36.66642 -5.81393 17842 ft 383 kts 16°
2026-04-28 15:34 36.69184 -5.80425 17343 ft 381 kts 16°
2026-04-28 15:34 36.71713 -5.79461 16854 ft 378 kts 16°
2026-04-28 15:34 36.74185 -5.78517 16383 ft 376 kts 16°
2026-04-28 15:34 36.76679 -5.77566 15908 ft 373 kts 16°
2026-04-28 15:35 36.79159 -5.76620 15436 ft 371 kts 16°
2026-04-28 15:35 36.84106 -5.74726 14484 ft 368 kts 17°
2026-04-28 15:35 36.86510 -5.73806 14018 ft 366 kts 17°
2026-04-28 15:36 36.88941 -5.72877 13528 ft 362 kts 17°
2026-04-28 15:36 36.91317 -5.71968 13035 ft 353 kts 17°
2026-04-28 15:36 36.93658 -5.71072 12567 ft 350 kts 17°
2026-04-28 15:36 36.95975 -5.70183 12093 ft 347 kts 17°
2026-04-28 15:37 36.98277 -5.69298 11628 ft 345 kts 17°
2026-04-28 15:37 37.00564 -5.68418 11148 ft 343 kts 17°
2026-04-28 15:37 37.02840 -5.67544 10674 ft 341 kts 17°
2026-04-28 15:37 37.05105 -5.66672 10257 ft 338 kts 17°
2026-04-28 15:38 37.07291 -5.65829 10125 ft 320 kts 17°
2026-04-28 15:38 37.09362 -5.65033 9934 ft 305 kts 18°
2026-04-28 15:38 37.11370 -5.64259 9604 ft 299 kts 17°
2026-04-28 15:38 37.13347 -5.63499 9459 ft 297 kts 17°
2026-04-28 15:39 37.15327 -5.62737 9023 ft 298 kts 17°
2026-04-28 15:39 37.17321 -5.62020 8632 ft 296 kts 11°
2026-04-28 15:39 37.19371 -5.61747 8171 ft 297 kts
2026-04-28 15:39 37.21417 -5.61614 7840 ft 293 kts
2026-04-28 15:40 37.23435 -5.61482 7294 ft 289 kts
2026-04-28 15:40 37.25434 -5.61348 6632 ft 287 kts
2026-04-28 15:40 37.27416 -5.61215 6016 ft 284 kts
2026-04-28 15:40 37.29392 -5.61079 5559 ft 282 kts
2026-04-28 15:41 37.31349 -5.60942 4993 ft 280 kts
2026-04-28 15:41 37.33277 -5.60807 4447 ft 276 kts
2026-04-28 15:41 37.35187 -5.60674 3940 ft 273 kts
2026-04-28 15:41 37.37045 -5.60611 3727 ft 257 kts 353°
2026-04-28 15:42 37.38694 -5.61131 3668 ft 237 kts 334°
2026-04-28 15:42 37.40048 -5.62199 3565 ft 224 kts 316°
2026-04-28 15:42 37.41039 -5.63647 3440 ft 214 kts 300°
2026-04-28 15:42 37.41635 -5.65311 3318 ft 204 kts 284°
2026-04-28 15:43 37.41842 -5.67040 3190 ft 198 kts 269°
2026-04-28 15:43 37.41838 -5.68767 2966 ft 197 kts 269°
2026-04-28 15:43 37.41836 -5.70448 2739 ft 186 kts 269°
2026-04-28 15:43 37.41835 -5.72034 2484 ft 177 kts 267°
2026-04-28 15:44 37.41833 -5.73533 2261 ft 171 kts 265°
2026-04-28 15:44 37.41830 -5.74992 2050 ft 162 kts 266°
2026-04-28 15:44 37.41828 -5.76358 1848 ft 150 kts 266°
2026-04-28 15:44 37.41829 -5.77634 1652 ft 142 kts 265°
2026-04-28 15:45 37.41831 -5.78858 1481 ft 138 kts 265°
2026-04-28 15:45 37.41827 -5.80072 1291 ft 139 kts 265°
2026-04-28 15:45 37.41832 -5.81282 1119 ft 137 kts 263°
2026-04-28 15:45 37.41814 -5.82479 934 ft 137 kts 264°
2026-04-28 15:46 37.41793 -5.83648 761 ft 131 kts 265°
2026-04-28 15:46 37.41806 -5.84794 555 ft 130 kts 266°
2026-04-28 15:46 37.41799 -5.85921 391 ft 127 kts 269°
2026-04-28 15:46 37.41800 -5.87037 226 ft 127 kts 269°
2026-04-28 15:47 37.41800 -5.88131 113 ft 118 kts 269°
2026-04-28 15:47 37.41790 -5.89004 103 ft 76 kts 270°
2026-04-28 15:47 37.41793 -5.89481 100 ft 39 kts 269°
2026-04-28 15:47 37.41790 -5.89673 98 ft 17 kts 271°
2026-04-28 15:48 37.41844 -5.89806 99 ft 19 kts 326°
2026-04-28 15:48 37.41963 -5.89865 97 ft 15 kts 337°
2026-04-28 15:48 37.42052 -5.89912 95 ft 12 kts 336°
2026-04-28 15:48 37.42120 -5.89934 94 ft 9 kts
2026-04-28 15:49 37.42171 -5.89965 96 ft 8 kts 314°
2026-04-28 15:49 37.42184 -5.89982 94 ft 0 kts 315°